Theta_e
289 289 287 286 284 283 282 281 281 281 281 281 281 281 281 280 279 279 278 278 278 279
288 287 286 284 283 282 282 282 281 281 280 280 280 280 280 279 278 278 278 277 278 277
287 286 285 283 281 281 281 281 280 280 280 279 279 279 279 278 278 277 277 277 277 277
285 284 283 282 281 280 280 280 280 280 279 279 279 279 278 278 277 277 276 276 276 276
284 283 281 281 280 280 280 280 280 280 280 279 279 278 278 277 277 276 276 276 275 275
283 281 281 280 280 280 279 279 279 279 279 279 278 278 278 278 276 275 275 275 275 275
282 282 281 281 280 280 279 279 279 279 279 278 278 278 277 277 275 275 275 276 275 275
283 283 281 280 280 279 279 279 279 278 278 278 277 277 277 276 276 275 275 275 276 275
282 281 281 280 280 279 279 279 278 278 277 277 277 281 282 278 275 275 275 274 274 275
282 281 280 280 279 279 278 278 278 277 277 277 276 283 284 282 276 275 275 274 275 275
282 281 280 280 279 279 278 278 277 277 277 277 277 283 284 283 276 275 275 275 274 274
282 281 280 279 279 279 278 278 277 278 277 277 276 282 284 283 277 276 275 275 274 274
283 282 280 280 279 279 279 279 278 278 278 277 277 281 283 283 277 274 275 275 275 277
282 282 282 281 280 280 279 278 277 277 276 277 276 275 282 284 277 276 274 274 274 274
Wind_Speed
12 8 9 11 12 9 9 8 7 7 7 8 8 7 7 7 7 8 7 8 6 4
12 11 11 10 9 7 7 7 8 8 9 8 8 8 8 7 8 7 6 6 6 5
12 11 10 9 10 10 9 10 10 9 9 8 6 7 8 7 7 9 5 4 6 4
12 11 11 10 10 10 10 11 11 11 10 10 9 7 8 7 8 9 7 6 6 5
12 12 12 11 10 10 12 9 10 10 9 8 8 7 9 9 7 9 8 7 6 6
13 13 13 13 12 12 12 10 9 10 10 9 8 7 6 7 7 6 6 6 6 6
14 14 13 12 12 11 11 11 10 9 8 8 7 6 6 7 7 6 5 5 5 5
14 12 11 11 12 11 10 9 9 8 7 6 7 6 7 7 7 6 5 5 5 5
13 13 12 11 11 10 9 8 8 8 9 8 6 13 15 10 7 6 6 6 5 5
14 14 12 11 11 11 11 9 9 8 8 8 6 15 16 15 5 6 6 6 5 5
14 14 14 13 13 11 10 11 10 9 8 7 6 16 16 15 6 5 6 6 5 6
14 14 14 14 13 10 9 8 7 5 7 7 5 16 16 13 6 6 7 5 6 7
13 14 14 13 12 9 8 7 5 6 6 7 6 14 16 13 4 5 5 5 7 13
11 12 12 11 9 8 8 7 7 5 4 6 8 8 17 17 4 6 5 6 6 6
Wind_Direction
159 166 163 165 152 153 157 153 149 130 128 126 120 120 115 114 109 106 106 107 98 105
165 165 166 160 146 143 136 140 137 140 136 133 133 137 134 126 115 109 110 115 118 113
165 163 151 151 145 148 148 149 147 140 139 137 141 148 136 124 125 121 120 122 121 112
163 155 152 157 155 153 148 154 156 154 150 153 156 156 136 130 138 129 128 127 134 139
159 155 159 159 157 154 158 159 156 155 155 158 162 159 149 147 150 140 145 151 144 158
167 164 168 165 161 162 159 161 158 158 161 163 167 163 160 145 140 143 151 156 163 170
174 174 171 166 165 164 163 160 162 165 161 164 163 163 153 142 139 144 158 168 175 180
169 167 163 163 164 161 163 164 164 155 151 154 163 167 159 156 156 159 164 184 195 203
159 152 164 164 164 158 160 158 155 166 165 167 178 185 181 170 161 165 180 195 204 214
159 156 160 158 159 168 171 161 173 170 165 181 179 193 194 188 172 177 191 199 194 216
164 159 156 163 169 168 169 176 178 180 179 176 187 208 203 199 169 193 204 201 200 219
166 160 162 172 171 166 163 173 180 172 169 182 189 212 211 205 168 204 217 202 209 221
165 164 169 168 167 165 170 175 163 167 186 201 200 216 217 214 165 205 218 212 226 231
160 162 164 159 157 155 160 159 167 178 187 202 204 210 223 224 177 212 213 227 236 234